Theta_e
300 298 297 296 296 297 297 297 297 297 297 295 294 294 294 294 293 293 294 293 293 292 292 291 291 290 289 290 291 290 289 289 289 289 289 290 290 290 289 289 288 288 288 287 286 287 286 285 285 284 284 284 284 284 283 282 282 282 284 284 281 280 281 281 282 282 280 279 280 281 282 282 284 285 283 283 283 283 283 283 283 283 283 283 284
298 296 294 293 294 294 295 295 296 295 295 294 294 294 293 293 293 293 293 293 293 293 293 292 292 292 291 291 291 290 289 289 289 289 289 290 290 289 289 288 288 288 288 287 286 286 285 285 285 284 284 284 284 283 282 285 284 282 282 281 282 280 280 282 283 280 278 278 278 278 279 281 283 282 283 281 283 284 283 283 283 283 284 284 285
298 298 295 294 293 293 294 295 296 297 296 295 295 293 292 292 293 293 293 292 293 293 293 292 292 292 291 290 291 289 289 290 290 289 289 289 289 289 289 288 288 287 287 287 286 286 285 285 284 284 284 284 284 282 283 283 282 282 281 281 280 281 281 283 281 281 278 279 279 278 275 277 281 279 280 282 284 283 283 282 284 283 284 283 284
296 298 297 292 292 293 293 294 295 296 294 293 293 292 292 292 292 292 292 292 293 293 293 292 292 290 289 290 289 289 288 289 288 287 287 288 288 288 288 288 288 287 287 286 286 285 285 285 284 284 284 284 283 283 282 282 281 281 281 282 280 279 278 280 282 280 279 278 276 277 276 277 275 276 278 281 282 281 282 282 282 283 282 282 283
298 297 295 290 291 292 293 294 294 294 294 293 293 293 293 292 292 292 292 292 292 293 292 291 290 288 287 287 287 286 286 286 286 285 287 288 288 287 288 288 288 287 287 286 286 285 284 284 284 284 283 283 283 282 282 282 281 281 282 281 279 279 279 278 280 281 279 282 278 277 275 275 275 275 278 278 279 279 281 281 283 283 281 282 283
298 298 297 293 292 292 292 292 293 294 294 294 294 293 293 292 292 292 292 292 292 292 292 290 290 289 287 287 286 286 286 285 286 286 286 287 288 288 287 288 288 287 286 286 286 285 284 284 284 283 283 283 283 282 282 281 281 281 281 281 280 279 280 278 277 281 281 281 280 278 277 276 275 276 277 275 278 281 281 280 281 281 281 281 281
295 296 295 292 292 291 291 292 293 293 294 294 293 293 293 292 292 292 292 291 291 291 291 291 290 289 289 289 288 288 287 287 288 288 288 288 288 287 287 287 287 287 286 286 285 285 284 284 283 283 283 282 283 281 281 281 281 281 281 280 280 282 280 277 278 278 278 279 280 279 280 281 279 278 275 275 275 277 277 278 278 280 280 280 281
294 294 294 294 293 292 292 292 292 294 294 292 292 292 292 292 291 291 291 291 291 291 291 291 290 289 288 288 289 288 288 288 287 288 288 288 287 287 287 287 286 287 286 285 285 285 284 283 283 283 282 282 283 281 281 281 281 282 281 281 281 281 279 278 278 278 277 278 280 278 279 279 278 278 278 276 275 273 276 279 279 278 279 279 280
293 294 294 293 293 292 293 292 293 292 291 292 292 292 292 292 291 291 291 291 290 291 291 290 291 290 289 288 288 288 288 287 287 287 287 287 286 286 286 286 286 286 286 285 285 284 285 283 282 282 282 282 283 281 281 281 281 281 280 280 280 279 280 279 278 277 278 277 276 277 277 277 277 277 277 277 276 274 274 275 277 279 279 279 279
293 294 295 293 293 292 292 292 290 292 291 292 291 291 291 291 291 290 290 290 290 290 291 290 290 290 289 288 288 287 287 285 286 286 286 286 286 285 286 285 285 285 285 285 284 284 284 283 282 282 282 282 282 281 280 280 280 280 280 280 280 279 279 279 279 278 278 278 278 277 277 277 276 276 276 275 275 275 274 274 275 275 275 277 279
295 294 293 292 290 290 290 291 290 288 288 289 290 290 290 290 290 290 290 290 290 290 290 289 289 289 289 288 288 287 286 285 285 285 285 285 285 285 285 285 285 285 284 284 284 284 283 283 282 282 281 282 282 280 280 281 280 280 280 279 279 279 279 280 282 279 279 278 277 277 277 277 276 276 275 276 275 274 274 274 275 276 275 275 277
293 291 292 290 289 288 288 289 288 289 288 288 288 289 289 290 290 289 289 290 289 290 290 290 289 289 289 289 288 288 287 286 285 285 285 285 285 285 285 284 284 284 284 283 283 283 283 282 282 281 281 281 281 280 280 280 280 279 279 279 278 278 278 279 279 278 278 278 277 277 277 278 277 276 277 277 276 275 275 274 274 275 275 276 277
291 292 290 289 290 289 289 289 288 287 289 288 288 289 289 289 289 289 289 289 289 289 289 289 289 289 289 289 288 288 287 287 286 286 286 285 285 285 284 284 284 283 283 283 283 282 282 281 281 281 281 281 281 280 280 280 279 279 279 278 278 278 278 278 278 277 277 277 277 277 277 277 277 277 277 277 277 276 275 273 274 275 273 274 276
291 291 290 290 290 290 290 290 289 289 288 289 288 288 289 289 289 289 290 289 289 289 289 289 289 289 289 289 289 288 288 287 287 286 286 286 286 285 285 285 284 284 283 283 284 283 282 282 282 281 280 280 280 280 279 279 279 278 278 278 278 278 278 277 277 277 277 277 277 276 276 276 277 277 277 277 276 275 274 274 274 274 274 274 275
288 289 290 290 290 290 290 290 289 289 289 288 288 288 288 288 289 289 289 289 289 289 289 289 289 289 289 289 289 288 288 287 287 287 286 286 286 285 285 285 285 284 284 284 283 283 282 281 281 280 280 280 280 279 280 279 278 278 278 278 277 277 277 277 277 277 277 276 276 276 277 276 276 276 276 276 277 276 275 275 274 272 272 273 273
286 287 289 289 289 289 289 288 289 289 288 288 288 288 288 289 289 289 289 289 289 289 288 289 289 289 289 288 288 288 288 288 287 287 287 287 286 286 285 285 285 285 284 284 283 283 282 281 281 280 280 279 279 279 279 278 278 278 277 277 277 278 277 277 276 276 276 276 276 276 276 276 276 276 276 276 276 276 276 276 275 273 271 270 273
285 287 289 289 286 287 288 288 288 288 287 288 289 289 289 289 289 289 289 289 289 289 289 289 289 288 288 288 288 288 287 287 287 287 286 286 286 286 285 285 285 284 284 284 282 282 282 281 280 280 279 279 279 279 278 278 278 278 277 277 277 277 277 276 276 276 276 276 275 275 275 276 275 276 276 277 276 276 276 275 275 274 274 271 270
285 286 288 288 288 287 287 287 288 288 288 288 289 289 290 289 289 288 288 288 289 289 289 288 288 288 288 288 288 288 288 287 287 286 286 285 285 285 285 284 284 284 284 283 282 282 281 281 280 279 279 279 279 278 278 278 277 277 277 277 277 276 276 276 276 275 275 275 275 275 275 275 275 275 275 275 276 275 275 275 275 275 274 272 272
287 288 289 289 289 289 288 288 288 287 287 288 288 288 287 287 288 288 288 288 289 289 288 288 288 288 288 288 288 287 287 287 287 286 285 285 284 285 284 284 284 283 283 282 282 281 281 280 280 279 279 278 278 278 278 277 277 276 276 276 276 276 275 275 275 275 275 275 274 274 274 274 274 275 275 275 275 275 275 274 274 275 275 274 273
289 290 290 290 290 289 289 288 287 287 287 286 286 286 286 287 287 287 287 287 286 287 287 287 288 288 288 287 287 287 287 286 286 285 285 284 285 284 284 283 283 283 282 282 281 281 280 280 279 279 278 278 278 277 277 277 276 276 276 275 275 275 275 274 274 275 275 275 274 274 274 274 274 274 274 274 274 275 275 274 274 274 273 273 273
290 291 291 291 290 290 289 288 287 286 285 285 286 286 287 285 286 286 286 286 286 287 287 287 287 287 287 286 286 286 286 286 285 285 285 284 284 284 284 283 282 282 282 281 281 281 280 280 279 278 278 278 277 277 277 276 276 275 275 275 275 275 274 274 274 274 274 274 274 273 273 273 274 273 273 273 274 273 273 274 274 273 272 272 272
290 292 291 290 289 290 289 287 285 285 285 286 286 285 285 286 287 287 286 286 286 286 287 287 287 287 286 287 286 286 285 285 285 284 284 284 284 284 283 282 282 282 282 281 281 281 280 279 279 278 278 277 277 277 276 276 275 275 274 274 274 274 274 273 273 273 273 274 273 273 273 273 273 272 272 272 272 272 272 272 272 272 271 271 272
293 291 289 289 289 289 288 287 286 287 287 287 285 285 286 286 286 286 286 287 287 287 287 287 286 286 286 286 286 285 284 284 284 284 284 284 284 283 283 282 282 281 281 281 281 280 280 279 278 278 277 277 277 276 276 276 275 275 274 274 274 274 273 273 273 272 272 273 272 272 272 272 272 271 272 272 272 272 272 272 271 272 271 271 271
290 288 287 287 286 285 285 285 286 287 288 288 287 286 286 286 286 287 286 287 287 287 287 286 286 286 286 285 285 285 284 284 284 284 284 284 283 283 282 282 281 281 280 280 280 280 279 278 278 277 277 276 276 275 275 275 275 274 274 274 273 273 273 273 272 272 272 272 271 271 271 271 271 271 271 271 271 271 271 271 271 271 271 270 271
291 289 285 285 284 285 287 287 287 287 287 287 287 287 287 287 286 286 287 287 287 287 286 286 285 285 285 284 284 284 284 283 284 284 284 283 283 282 281 281 280 280 280 279 279 279 278 278 277 277 276 275 275 275 275 274 274 274 274 273 273 273 272 272 272 272 273 271 271 271 271 270 270 270 270 270 271 270 271 271 270 270 270 270 271
291 286 284 286 287 287 286 287 287 286 286 287 288 288 288 288 287 287 287 287 287 286 286 285 285 285 284 284 284 284 283 283 284 284 284 283 282 281 281 280 280 279 279 279 278 278 278 277 277 276 276 275 275 275 274 274 274 273 273 273 272 272 272 272 271 271 271 271 270 270 270 270 270 270 270 270 271 270 270 270 270 270 270 270 270
289 286 287 285 286 287 288 288 288 288 288 288 288 288 287 287 287 287 287 287 286 286 286 285 285 284 284 284 284 284 284 284 284 284 284 283 282 281 280 280 280 279 279 278 278 277 277 277 276 275 275 274 274 274 273 273 273 272 272 272 271 271 271 271 271 270 270 270 270 270 270 270 270 270 270 270 270 270 270 270 270 270 271 271 271
287 287 287 288 289 288 288 288 287 288 289 288 288 288 288 287 288 288 287 286 286 285 285 285 285 284 284 284 284 284 284 284 284 283 283 283 282 281 280 280 279 279 278 278 277 277 276 276 275 275 274 274 273 273 273 272 272 272 271 271 271 270 270 270 270 270 270 270 270 271 271 271 271 271 271 271 271 270 271 270 271 272 272 272 271
288 289 289 289 290 292 293 293 294 292 291 290 289 289 288 287 287 288 287 286 286 285 285 285 285 284 284 285 285 284 284 283 283 283 283 282 281 281 280 279 279 278 278 277 277 276 275 274 274 274 273 273 273 273 272 272 271 271 271 270 270 270 269 269 270 270 270 270 271 271 271 271 272 273 274 274 274 273 272 271 272 273 273 272 272
288 290 291 292 292 293 293 294 295 294 292 290 289 289 289 289 288 287 286 286 285 285 285 285 285 285 285 285 284 283 283 283 282 282 282 281 281 280 279 278 278 277 277 276 275 275 274 274 273 272 272 272 272 272 274 276 275 271 270 270 269 269 270 270 270 270 270 271 271 271 272 274 275 275 276 276 277 278 278 276 275 275 274 274 273
289 290 291 291 292 292 292 292 291 291 290 290 291 292 292 290 288 286 285 285 285 285 285 285 285 285 285 284 284 283 283 282 282 282 281 280 280 278 278 277 276 276 275 275 274 274 273 273 273 272 271 271 271 271 277 278 278 277 271 270 270 270 271 271 271 270 270 271 272 273 273 275 276 276 276 277 278 278 278 279 279 279 278 276 274
289 289 289 289 289 290 290 290 291 291 291 291 293 294 293 290 288 285 284 284 284 285 285 285 285 285 285 284 284 283 282 282 281 281 280 279 278 277 276 276 275 274 274 273 273 273 273 272 272 271 271 271 270 274 279 279 279 278 275 270 270 270 271 271 271 271 272 273 273 274 274 274 275 274 274 274 275 277 277 278 278 278 279 279 279
288 287 287 287 287 288 288 289 291 292 293 294 294 293 292 291 288 286 282 282 283 284 284 284 284 284 284 283 283 282 281 281 280 280 279 278 277 276 276 275 274 274 273 272 273 273 272 272 271 271 270 270 270 276 279 280 280 279 277 273 271 271 271 271 272 273 273 273 274 274 274 274 274 276 275 274 274 274 276 277 277 277 278 278 279
287 287 286 287 287 287 288 288 289 290 290 291 291 290 290 290 287 283 281 282 282 282 283 283 283 283 282 282 282 281 281 280 280 279 278 277 276 276 276 275 274 273 272 272 272 272 271 271 270 270 270 270 269 276 280 281 280 280 278 275 272 272 272 273 273 273 274 274 274 274 273 273 273 273 273 273 272 272 272 273 273 274 274 275 277
285 285 285 286 286 286 287 287 288 288 289 290 290 290 288 288 286 282 280 280 280 281 281 282 281 281 281 281 281 281 280 280 279 278 276 276 275 275 275 274 273 273 272 272 271 271 270 270 270 270 269 269 269 277 280 281 281 281 280 276 273 273 274 274 274 275 274 274 275 274 274 273 272 272 273 273 272 272 273 273 273 274 275 275 276
285 284 285 285 285 285 285 286 287 288 288 288 288 288 286 287 285 283 279 279 280 280 280 280 280 280 280 280 280 280 279 278 277 276 275 275 275 275 274 273 273 272 272 272 271 271 270 269 269 269 269 269 270 277 281 282 282 282 282 276 274 274 274 274 274 275 275 275 274 273 272 272 271 271 274 276 276 275 274 273 273 274 274 275 275
284 285 285 285 285 285 285 286 286 287 287 288 286 284 284 284 283 279 277 276 277 278 279 279 279 279 280 280 279 279 278 277 276 275 275 274 274 274 274 273 272 272 271 271 270 270 270 269 269 269 269 269 269 276 281 282 282 282 281 276 275 274 274 273 273 274 274 274 273 272 271 271 271 271 274 276 277 277 274 273 273 273 273 273 273
284 285 285 285 285 285 286 286 286 286 287 286 282 281 280 280 279 275 275 275 276 278 278 278 279 279 279 278 279 278 277 276 275 275 274 275 274 274 274 273 272 271 271 270 270 270 270 269 269 269 270 270 270 275 281 282 282 282 280 275 274 273 273 273 272 273 272 272 273 274 273 272 272 273 276 277 277 276 274 274 273 273 272 273 273
284 284 284 285 285 285 285 286 286 286 287 286 283 280 280 280 277 274 274 274 276 277 277 277 277 276 275 276 277 277 277 276 275 275 275 274 273 273 273 272 272 272 271 270 270 269 269 269 269 270 272 271 270 275 281 281 281 282 279 275 274 273 272 272 272 271 272 272 272 274 275 275 274 275 276 277 277 276 274 274 273 273 272 271 272
285 285 286 286 286 285 285 285 285 286 287 286 284 282 281 280 277 273 273 276 277 277 276 275 275 275 274 275 276 276 276 275 275 274 274 274 274 272 271 271 271 271 270 270 269 269 268 268 269 269 271 271 271 274 278 281 281 281 280 274 273 272 271 271 271 270 270 271 272 272 274 276 277 277 277 277 277 277 275 275 274 272 271 271 272
285 285 286 286 286 286 285 285 286 287 287 286 284 282 282 280 276 275 276 278 277 276 276 276 275 275 274 274 274 275 275 275 275 274 274 274 273 272 271 271 270 270 269 269 268 268 268 268 268 269 270 269 270 272 276 280 280 281 280 276 272 272 271 271 270 270 270 270 272 273 273 274 275 275 275 276 276 277 277 275 274 272 272 272 274
285 285 285 285 285 285 285 286 286 287 287 287 284 282 282 280 278 278 280 278 276 276 276 276 276 276 276 275 275 275 275 275 274 274 273 272 272 271 271 270 270 269 269 268 268 268 267 267 267 268 268 268 270 273 273 279 280 281 280 278 273 272 272 271 270 270 271 271 272 272 272 273 274 274 274 275 276 277 277 274 273 275 276 276 273
283 283 284 285 284 284 285 285 286 287 287 287 285 283 282 281 280 282 281 277 275 275 275 276 276 276 275 275 275 275 275 274 273 273 272 271 270 270 270 270 269 269 268 268 267 267 267 266 266 267 268 268 269 271 275 275 279 280 280 279 276 274 276 272 271 270 271 272 272 272 272 273 273 274 274 276 276 276 275 273 274 275 275 275 273
282 283 283 284 283 284 284 285 286 286 287 287 285 284 284 282 282 284 280 276 274 274 275 275 275 275 275 275 274 274 274 273 273 272 272 270 269 269 269 269 269 268 268 267 267 266 266 266 265 266 267 268 269 270 274 276 277 280 280 280 278 277 277 273 272 272 272 271 271 271 270 272 273 274 275 275 274 274 273 273 273 274 274 272 266
281 281 283 283 282 282 283 284 285 286 286 286 286 284 284 284 285 284 280 277 275 275 274 275 275 274 274 274 273 273 273 273 272 272 271 270 269 269 268 268 268 268 268 267 266 266 266 265 265 265 266 267 268 269 271 275 278 279 280 280 279 278 278 277 273 272 272 271 272 273 272 273 274 273 273 272 271 270 271 271 272 272 271 263 261
280 281 281 282 282 282 282 282 283 284 285 286 286 286 284 285 286 284 280 278 275 274 274 275 274 274 274 273 272 272 272 272 272 272 272 271 269 269 268 268 268 267 267 267 266 266 266 266 265 266 266 266 268 269 270 272 275 277 278 279 278 278 278 277 274 272 273 273 273 273 274 272 270 269 268 267 266 266 269 271 270 269 263 260 260
278 279 280 280 280 280 280 280 280 282 283 285 285 286 286 286 286 285 281 278 276 276 276 275 274 274 273 272 272 272 271 271 271 271 271 271 270 269 269 268 268 267 267 267 266 265 266 266 266 266 267 267 267 268 269 271 272 273 274 275 276 276 277 276 272 272 272 270 271 270 268 270 269 269 268 268 268 267 264 262 261 261 260 260 260
277 278 278 278 278 278 278 279 279 281 282 283 284 285 286 286 286 285 280 277 276 276 276 275 274 273 272 271 272 270 270 270 270 270 270 270 269 269 269 269 267 267 267 267 266 265 266 266 266 267 267 266 266 267 268 269 270 271 272 273 273 272 272 270 269 269 267 267 266 267 265 261 260 259 259 258 258 258 260 260 259 259 259 260 262
275 275 276 275 275 276 277 277 278 279 280 281 282 283 285 285 286 285 279 277 276 275 274 274 273 271 270 270 271 270 270 270 270 270 270 270 269 269 269 270 270 270 269 269 267 266 267 268 268 268 267 266 266 266 267 272 270 273 271 270 270 269 269 269 270 270 264 262 261 257 256 257 256 256 256 254 254 256 257 258 258 257 258 258 258
273 273 273 273 274 274 274 275 275 276 277 278 280 281 283 285 285 283 278 276 276 275 274 273 272 271 270 269 269 269 269 269 269 269 269 268 270 272 271 269 269 272 273 274 273 268 269 269 269 269 269 267 266 267 273 275 274 275 275 274 273 273 272 270 272 273 266 259 257 256 255 254 254 254 253 254 255 255 255 256 257 260 259 257 258
271 271 271 272 272 272 272 271 272 274 274 275 276 277 279 280 282 281 278 277 276 275 274 273 271 270 269 269 269 268 268 268 268 268 268 267 266 269 273 274 272 272 273 274 275 274 274 274 271 269 270 272 272 273 274 275 275 275 275 275 275 274 274 273 274 268 262 259 255 255 255 253 255 254 253 254 255 255 256 256 256 257 257 258 259
Wind_Speed
19 7 9 8 10 11 11 10 10 9 10 12 14 15 16 17 15 16 14 14 13 12 11 12 12 9 6 11 12 10 9 7 8 7 8 7 8 8 9 8 8 8 8 8 8 8 7 6 6 5 5 6 6 6 5 5 4 4 4 2 3 3 2 3 3 1 4 4 2 4 7 5 3 2 2 2 2 3 2 2 3 3 3 3 3
14 10 6 5 6 7 7 9 9 11 12 13 16 18 16 15 17 15 13 14 15 15 14 13 13 15 15 14 11 10 10 11 11 9 9 8 9 9 8 8 9 9 8 8 8 8 8 7 7 7 7 6 5 4 4 4 4 4 4 3 1 3 2 1 4 2 5 2 6 7 6 7 3 2 2 1 6 5 2 1 2 3 4 4 3
16 15 8 7 7 7 9 10 12 17 16 18 17 14 14 15 14 14 14 15 14 14 13 14 11 9 9 8 10 7 6 6 6 7 6 8 9 9 8 9 9 8 9 9 9 8 8 8 8 7 7 7 7 6 5 5 5 5 5 6 5 1 3 1 3 4 1 3 2 0 3 6 5 3 3 5 9 4 1 2 4 3 4 3 3
18 19 15 7 8 9 9 10 13 10 10 10 11 15 13 14 14 15 15 15 14 14 14 11 9 6 4 6 5 6 6 5 5 5 6 7 9 8 9 10 10 9 9 9 8 8 8 9 7 7 7 7 8 8 7 7 6 5 4 5 6 5 2 1 2 3 2 2 5 1 2 1 2 1 5 9 5 2 1 3 1 3 3 3 3
18 16 12 6 7 11 13 12 9 12 12 14 15 15 13 17 17 16 15 15 14 14 14 10 10 8 6 6 5 5 4 5 5 6 8 9 8 10 12 10 10 9 9 9 8 9 8 7 8 7 7 7 7 8 8 8 7 6 7 6 5 7 5 3 0 1 3 1 2 2 3 2 1 3 6 6 2 4 1 1 2 1 3 3 3
19 17 15 8 10 7 7 8 11 12 14 15 15 16 14 14 14 14 12 12 12 12 13 12 12 13 11 11 11 10 9 10 15 17 13 14 15 8 7 10 10 9 9 9 8 7 8 8 7 8 8 8 7 7 7 6 6 7 7 6 5 4 7 6 3 0 1 1 1 2 2 2 3 3 2 6 3 8 5 2 1 1 2 3 2
12 12 10 7 10 8 9 12 14 14 14 11 11 12 13 14 15 15 14 13 12 13 14 12 12 12 17 17 16 16 15 13 9 6 10 8 6 10 10 8 9 10 9 9 8 8 7 7 8 8 7 7 6 7 7 8 7 7 5 5 6 6 6 5 7 4 1 2 2 3 2 1 1 2 2 4 8 2 2 3 2 1 2 2 2
9 10 11 11 10 13 15 15 12 15 11 9 10 10 14 15 14 15 12 12 12 13 15 15 16 15 14 13 12 13 15 13 11 10 7 7 9 10 9 9 9 9 10 9 9 8 8 8 7 7 8 7 7 7 8 7 6 4 5 5 5 6 6 8 6 6 6 2 1 2 2 1 1 0 0 2 3 10 10 3 5 3 1 4 4
7 10 13 12 13 14 11 12 13 8 9 13 14 13 12 11 13 12 13 12 12 15 16 16 15 15 15 12 12 11 10 7 7 7 8 9 10 8 9 9 9 9 9 10 9 9 8 8 8 7 7 7 7 6 6 7 8 8 7 6 6 6 5 6 7 7 6 5 2 0 1 0 1 0 0 2 3 3 10 12 11 3 3 5 2
9 13 11 9 10 9 9 6 6 10 9 8 7 8 10 10 13 14 14 12 12 14 15 15 14 12 13 14 16 12 9 6 8 9 9 9 11 10 9 9 9 9 9 9 9 9 9 8 8 8 8 8 7 7 7 7 7 6 7 7 6 6 4 6 7 7 6 5 4 4 2 1 1 1 1 2 1 4 9 8 10 16 20 7 4
11 10 7 6 5 5 6 9 8 5 5 7 8 9 9 11 13 14 15 11 12 14 15 16 14 13 15 15 16 15 12 10 10 10 9 10 12 11 11 10 9 9 8 8 10 9 8 8 8 8 7 7 7 8 8 8 8 7 6 5 5 6 6 6 6 5 5 5 4 5 6 5 5 4 3 2 2 3 3 7 8 7 9 15 15
6 5 7 5 4 5 6 7 8 9 7 8 9 9 10 11 12 14 12 14 13 14 15 16 15 15 14 15 16 15 14 13 16 16 15 15 13 12 10 8 9 8 8 8 9 9 9 8 7 7 7 7 8 7 7 7 6 6 6 6 5 4 5 6 6 6 5 5 4 4 5 5 4 5 4 4 5 5 5 8 8 6 7 9 10
6 8 6 6 9 10 11 10 7 10 13 13 12 11 10 11 14 16 16 15 15 14 16 16 15 16 16 16 15 12 14 15 15 15 14 14 13 12 12 12 10 10 11 11 10 11 10 10 9 10 9 8 7 7 6 7 7 6 6 5 5 6 6 7 7 6 7 6 5 4 5 4 5 4 4 4 4 5 5 8 7 5 8 9 8
7 7 6 8 9 10 11 12 13 11 11 12 11 12 12 11 13 16 18 15 14 14 17 17 19 18 16 15 14 13 14 14 14 14 14 13 12 14 14 14 14 15 14 14 13 13 11 11 10 9 7 6 7 7 7 7 7 7 6 7 6 5 5 6 7 6 6 5 5 5 4 5 4 3 4 4 5 4 5 6 8 6 8 10 5
3 3 6 10 11 11 12 13 12 11 11 11 11 11 10 12 14 17 14 15 17 18 15 18 17 16 15 15 13 13 14 13 13 11 12 14 13 14 13 12 13 13 14 12 11 13 12 10 10 10 9 9 7 7 7 7 6 6 6 6 6 6 6 7 7 8 7 6 5 5 5 4 4 4 4 5 4 5 5 5 5 11 6 5 4
0 4 7 8 7 7 7 8 10 10 11 11 12 12 13 15 16 17 18 16 16 15 16 18 17 14 14 15 16 15 12 11 10 10 12 13 14 14 14 14 12 11 10 10 12 12 12 12 10 10 9 9 8 8 8 8 8 8 7 7 7 5 7 8 7 7 7 7 6 5 4 3 3 4 4 5 5 5 5 5 4 3 6 11 6
4 5 6 6 5 7 9 8 8 8 9 14 17 17 20 18 16 17 17 13 15 17 18 15 14 13 16 17 14 14 15 16 16 16 14 12 13 13 13 14 11 11 11 11 12 12 12 12 12 11 11 10 9 9 9 9 9 9 8 9 8 7 7 8 7 7 6 6 5 5 5 4 3 3 3 4 5 4 5 5 5 5 4 4 7
5 6 7 7 7 8 7 6 8 12 15 14 16 15 14 13 15 17 14 16 17 17 17 16 16 17 15 16 16 17 16 15 13 12 11 10 12 12 11 12 15 13 12 11 12 14 13 13 12 12 11 11 11 10 10 10 10 8 8 8 7 7 7 6 6 6 6 5 4 4 3 4 2 3 4 3 3 4 5 5 5 4 4 5 3
6 8 8 9 10 12 12 13 11 9 8 9 9 7 7 9 12 14 17 20 19 14 12 11 12 12 13 16 17 15 14 13 12 10 10 12 14 13 15 16 12 13 13 13 13 13 13 13 12 12 12 12 11 11 10 10 9 9 8 8 7 7 7 7 6 6 5 5 5 4 3 3 2 3 3 3 3 3 4 4 4 4 4 3 4
10 10 10 11 11 11 11 11 11 13 11 8 7 6 10 13 10 11 11 8 8 12 15 16 16 15 14 12 13 14 14 13 12 12 12 14 14 13 13 13 17 14 14 15 14 15 15 15 13 13 12 12 12 11 11 11 10 9 9 8 8 8 7 7 6 5 5 5 5 4 4 4 3 3 3 3 3 3 3 4 3 3 2 2 1
11 12 13 11 11 10 9 8 6 3 4 5 8 13 13 7 10 12 14 14 14 15 14 15 14 15 15 16 16 16 16 14 13 13 14 13 12 12 12 11 7 13 15 16 16 16 16 15 15 14 15 14 14 12 11 10 10 9 8 8 8 8 8 6 7 6 5 5 5 5 4 4 4 4 3 3 3 3 2 3 3 3 3 2 2
10 13 13 9 8 10 9 5 4 5 6 9 11 7 7 12 15 13 11 11 14 14 15 17 15 15 16 16 15 13 13 12 14 13 14 13 12 13 12 9 14 13 13 16 17 15 15 16 15 15 14 13 12 12 11 10 10 10 9 7 8 9 8 7 7 7 6 6 5 5 4 4 4 4 3 4 4 4 4 4 4 3 4 4 2
14 15 12 9 9 8 5 5 8 9 9 8 6 10 12 13 11 10 13 17 17 18 16 13 12 13 16 15 13 12 12 14 15 14 14 14 13 12 11 13 13 12 11 12 14 15 15 15 14 14 14 13 13 12 11 11 11 11 11 9 9 9 10 10 9 8 7 6 6 5 5 5 3 4 5 5 4 4 4 5 4 3 3 3 3
12 12 10 7 5 5 5 7 8 8 10 12 11 8 8 8 11 12 15 19 16 16 14 13 14 15 14 12 13 13 13 14 15 15 17 15 12 11 10 12 12 10 13 11 10 12 13 15 15 14 14 13 13 11 11 10 11 11 11 11 10 10 9 9 8 8 8 7 7 6 5 5 5 5 5 5 4 4 6 5 5 4 3 4 4
15 13 7 6 5 6 8 7 6 7 6 6 8 11 12 13 12 14 17 18 15 13 11 13 14 15 13 14 14 14 15 16 17 15 16 15 14 12 11 13 12 11 12 11 11 11 12 13 14 15 14 13 13 12 12 11 10 10 10 10 10 10 9 9 8 8 8 8 7 7 6 6 5 5 5 5 5 7 6 5 5 4 4 4 4
15 6 4 6 8 8 8 9 9 9 11 11 11 12 13 13 15 15 16 13 13 12 13 13 13 14 15 16 16 14 16 18 18 17 17 15 14 13 13 12 13 13 12 11 14 13 13 13 12 12 13 13 12 12 13 12 11 10 9 9 9 9 9 8 8 8 7 7 7 6 6 6 6 7 6 6 7 8 6 5 5 4 4 5 6
11 5 7 5 7 9 10 10 11 11 10 10 11 11 11 12 14 13 13 13 12 11 13 14 15 15 15 16 16 17 18 18 18 16 14 14 14 15 14 15 13 14 14 13 13 14 12 13 12 11 12 13 12 11 11 11 11 10 10 10 10 9 8 7 7 8 7 7 6 6 6 7 8 8 7 7 7 7 6 6 6 6 6 7 7
3 4 6 8 10 10 11 11 9 9 9 9 10 11 10 12 15 14 13 12 10 12 14 16 15 16 17 17 17 17 17 16 13 12 13 13 13 13 14 13 13 15 15 15 15 14 12 11 12 12 11 11 12 11 11 11 10 11 10 10 10 9 9 8 8 7 7 6 6 7 7 8 8 8 8 7 7 6 5 6 6 6 7 7 8
5 7 8 8 10 11 12 12 10 9 11 11 9 9 10 11 12 12 10 14 13 12 14 14 15 16 17 16 15 14 12 12 13 13 13 13 14 14 13 13 14 14 12 13 12 12 13 12 11 12 12 11 12 12 10 11 11 11 9 10 10 10 10 9 8 8 7 7 7 7 8 8 8 11 14 12 10 9 6 6 7 8 8 8 8
6 8 9 10 12 14 15 16 17 17 15 13 12 12 12 13 14 13 11 12 9 13 15 15 16 18 16 14 14 12 12 12 13 14 15 15 14 13 13 13 14 14 13 12 12 12 13 14 14 12 11 11 10 9 12 18 14 11 11 9 8 9 9 8 9 8 8 8 8 8 8 13 15 15 14 14 15 15 14 10 7 6 7 7 7
8 9 12 12 12 14 16 16 16 16 14 13 13 13 13 14 13 11 11 12 12 15 16 16 18 17 16 14 12 13 13 15 15 13 12 13 14 13 13 13 13 12 13 13 13 14 13 12 14 14 14 11 10 9 19 20 20 19 11 10 9 9 8 9 8 8 8 9 8 9 8 11 12 12 11 15 14 15 14 14 16 16 13 9 7
12 12 13 14 14 14 14 15 16 16 14 13 15 16 14 14 14 11 13 10 12 14 14 15 17 14 13 14 14 13 14 14 13 15 14 14 12 13 13 14 13 13 12 12 13 14 13 12 11 11 12 11 10 14 22 22 21 21 16 10 8 9 9 9 9 9 8 8 8 8 8 7 8 9 7 7 10 12 13 13 14 15 16 18 18
12 14 14 13 13 13 15 16 14 15 16 18 18 16 17 15 13 11 3 7 12 13 14 14 14 12 13 13 12 13 14 14 15 14 13 12 14 14 14 14 16 14 11 14 14 12 12 11 12 13 12 10 9 17 21 22 21 21 21 15 8 9 9 9 9 9 9 8 8 9 8 7 6 12 9 7 6 6 10 13 14 15 17 18 18
12 13 13 12 12 14 14 15 15 15 15 15 15 15 16 14 9 2 8 10 11 12 12 13 10 11 11 12 12 13 14 14 13 12 12 13 14 16 14 12 11 11 13 12 12 14 12 12 12 13 11 10 10 17 22 23 22 23 22 17 9 10 8 9 10 10 9 10 10 9 8 8 7 7 6 6 5 5 5 6 7 8 9 13 17
11 14 15 14 14 16 16 17 17 17 16 14 15 13 12 13 10 6 5 8 9 10 10 11 11 12 11 12 13 14 15 13 13 12 13 13 14 12 13 12 13 14 15 15 15 14 13 12 11 11 10 11 10 20 23 23 23 24 23 16 8 9 9 8 9 10 9 10 10 9 8 6 5 4 5 6 6 6 6 7 8 9 9 9 11
12 12 13 13 14 15 15 16 16 15 16 14 14 15 13 14 9 7 6 6 7 8 11 8 9 10 12 13 13 13 12 11 12 12 13 14 14 15 15 12 11 10 9 9 8 10 12 13 12 12 11 11 11 22 23 24 25 25 25 12 10 10 8 8 8 8 9 9 8 6 4 4 3 4 8 13 11 7 6 7 8 9 8 8 10
12 11 12 11 11 12 14 14 15 15 15 14 15 14 13 13 10 6 4 4 5 7 8 9 10 11 12 12 12 12 12 12 13 14 15 15 15 14 12 10 12 12 12 12 13 13 12 13 14 13 13 12 11 20 25 25 25 26 20 9 10 8 7 7 7 9 8 8 6 4 3 3 4 5 9 12 12 11 7 7 8 8 9 11 11
13 13 12 12 12 12 14 13 15 16 15 13 13 13 12 11 8 4 2 3 4 8 8 7 11 10 9 9 9 11 13 13 14 16 16 14 12 9 11 11 14 14 13 13 11 11 10 11 14 15 14 14 12 18 26 25 25 27 16 10 9 8 7 7 7 7 5 5 6 10 7 5 6 7 10 12 12 10 7 7 8 11 12 10 10
13 14 15 15 15 13 13 14 16 18 19 16 15 14 12 12 8 4 2 4 7 9 5 6 5 3 4 5 7 8 10 11 13 13 12 13 13 13 11 10 10 10 11 9 10 10 10 9 10 12 15 15 13 16 26 25 26 26 17 9 9 8 8 7 6 6 6 5 6 7 11 10 9 8 12 12 13 11 6 8 10 10 9 11 12
15 12 12 13 12 13 16 17 17 19 18 17 16 14 13 12 10 4 5 7 9 6 5 5 5 5 5 6 6 8 8 9 9 7 7 9 8 9 10 11 9 9 9 9 9 9 11 10 10 11 11 10 11 10 17 26 24 25 21 11 8 10 9 9 7 7 6 7 6 6 7 11 11 11 12 12 12 13 9 7 7 8 8 9 9
15 16 16 15 14 12 13 13 14 16 17 15 14 15 15 12 8 6 10 10 6 3 2 3 3 5 6 7 6 8 9 8 9 10 9 8 9 11 11 11 11 9 9 9 10 9 9 8 9 9 8 10 11 10 14 26 24 25 24 19 9 10 9 9 9 9 8 7 6 6 6 7 9 10 10 11 12 13 14 9 7 6 7 12 15
10 14 15 15 16 16 16 15 12 13 14 14 13 14 14 11 9 11 12 6 4 2 2 2 3 4 6 7 8 8 8 8 8 10 11 10 8 9 10 11 10 10 11 11 10 9 9 9 8 8 7 9 10 14 11 21 24 24 23 23 12 10 11 10 9 8 8 7 7 7 5 7 9 9 10 11 13 14 16 9 8 15 20 20 14
15 15 12 12 15 17 17 16 15 13 11 11 13 15 14 11 11 14 10 6 4 2 2 3 4 5 6 7 7 9 9 8 9 10 12 11 10 10 10 10 11 11 12 13 13 12 11 11 8 6 5 7 9 11 17 14 22 24 24 22 20 14 20 10 9 8 9 8 8 6 6 9 9 9 10 12 13 14 12 9 14 16 18 20 16
14 12 13 14 14 14 15 15 14 13 11 11 11 14 15 14 15 13 9 5 3 3 3 4 4 5 5 6 6 7 6 7 9 10 10 11 11 11 10 10 11 11 11 12 9 9 9 11 9 8 6 6 7 6 14 18 17 24 23 22 22 20 20 11 7 7 7 7 5 6 5 9 8 10 10 10 11 11 8 12 14 16 18 15 6
14 14 13 12 14 17 17 17 14 13 12 12 11 13 17 17 15 10 8 6 5 4 5 6 5 5 6 6 7 8 8 8 9 11 12 11 12 12 12 10 11 10 12 12 8 8 8 7 7 8 7 6 6 6 6 13 19 20 22 22 21 21 20 18 10 7 7 7 8 10 11 11 9 6 6 7 7 7 10 11 13 15 14 5 6
12 13 13 13 14 15 16 17 18 14 13 12 13 12 16 18 14 10 7 6 6 6 7 8 6 7 8 7 8 8 8 8 9 9 10 11 14 14 13 12 11 14 12 13 12 9 8 13 11 8 9 9 8 7 8 9 12 15 16 20 21 20 19 17 12 9 13 12 12 12 9 3 1 1 2 2 3 5 10 12 13 13 5 6 6
14 14 14 14 13 14 17 18 19 17 13 12 13 13 14 15 15 12 8 7 7 8 8 7 8 7 7 8 10 9 9 9 11 9 9 9 10 11 12 13 14 18 15 13 11 10 10 11 10 9 9 9 8 10 11 11 10 10 9 12 13 13 17 15 9 8 8 5 6 6 4 3 1 2 4 5 6 7 6 6 4 4 5 6 7
13 14 15 14 15 16 17 18 18 18 15 14 15 15 15 15 15 13 8 7 8 9 9 9 9 7 7 9 10 11 12 10 11 12 11 10 9 10 12 15 16 20 18 16 15 11 13 12 11 13 13 12 13 13 13 13 12 11 11 10 9 8 8 6 7 6 6 5 5 5 6 4 3 2 1 1 2 2 4 4 4 5 6 8 9
14 14 13 15 16 17 17 18 19 18 17 16 16 16 16 15 14 13 8 8 10 10 9 8 7 7 8 8 8 9 10 10 11 10 9 10 11 11 10 8 8 10 14 17 17 16 18 17 18 17 17 10 7 14 14 13 14 17 15 12 10 10 8 7 9 11 8 6 5 4 4 3 1 0 1 2 2 2 3 3 5 6 6 6 5
13 13 14 16 16 16 17 18 18 18 17 16 16 17 16 15 13 11 7 9 11 9 8 9 7 8 7 7 8 9 9 9 10 10 9 8 7 10 9 8 8 12 18 15 15 15 17 15 15 13 15 20 20 16 20 28 25 23 23 20 16 16 14 10 13 18 10 6 5 5 4 4 2 3 2 3 3 2 3 5 5 6 6 5 5
15 16 17 16 15 16 16 20 19 16 14 15 15 16 16 16 16 12 9 10 10 9 9 9 8 9 10 10 9 8 9 9 9 9 8 9 7 7 14 16 11 12 18 19 17 15 19 20 15 14 11 10 13 21 27 26 25 25 24 22 21 20 19 19 18 12 7 7 5 6 4 3 4 3 3 4 2 2 4 4 6 6 5 5 7
Wind_Direction
255 242 234 212 202 201 201 189 193 190 188 182 181 185 182 178 172 181 178 171 170 171 174 171 175 175 179 189 194 184 183 178 183 183 183 184 178 176 174 173 172 169 168 163 165 162 164 163 161 171 163 156 155 163 158 154 151 148 137 108 107 77 51 7 351 27 5 329 322 311 311 295 289 234 231 176 354 326 331 342 307 334 331 339 321
272 268 249 232 215 203 187 184 174 177 198 184 186 189 182 176 180 177 171 177 180 179 178 182 185 185 182 190 184 180 178 182 188 190 187 182 181 179 176 175 175 174 169 169 166 167 165 169 172 173 166 162 158 148 150 149 142 135 133 76 24 125 117 39 356 80 18 24 327 334 324 321 325 33 185 273 4 0 345 15 347 353 328 321 341
263 262 244 221 212 201 188 191 194 196 188 188 189 176 178 180 182 174 178 178 183 180 177 186 186 183 182 175 176 176 198 191 183 178 169 177 185 181 177 178 176 175 174 174 171 173 171 168 176 171 168 160 150 156 157 155 159 164 171 147 120 47 104 70 45 68 140 266 217 35 349 6 329 358 303 320 342 302 306 11 0 343 319 325 346
254 257 255 215 204 200 195 197 199 190 181 186 179 182 180 185 181 179 181 182 180 183 184 181 169 151 136 140 153 153 172 165 160 152 165 167 186 184 187 182 181 179 177 175 175 174 172 174 168 170 173 170 163 158 163 167 163 165 167 175 149 121 129 96 64 71 106 53 15 64 253 110 340 329 327 294 266 265 284 341 6 333 316 331 5
252 257 256 212 204 206 200 199 178 187 186 186 184 183 185 186 184 180 180 183 184 180 175 156 138 128 115 98 103 93 79 145 155 187 184 184 179 192 193 181 180 179 179 181 177 176 173 171 173 174 171 172 164 163 167 172 170 170 172 168 171 144 146 138 60 79 70 61 143 63 356 4 206 268 330 287 355 317 345 338 329 331 324 331 354
251 252 250 220 215 209 204 188 188 194 194 193 187 185 180 181 178 180 179 181 181 177 168 160 165 161 154 156 170 183 186 181 195 194 185 190 195 177 168 184 182 180 181 180 179 171 176 176 174 173 174 173 173 171 160 152 166 170 187 170 156 162 138 135 132 53 94 104 124 130 165 207 299 278 28 308 312 264 261 234 228 230 290 322 332
249 251 251 219 219 200 202 197 196 196 202 183 182 184 181 179 180 180 179 179 177 174 170 169 170 178 181 184 184 187 192 206 200 187 188 187 163 180 184 182 186 180 183 180 180 178 174 175 177 180 177 174 170 158 163 170 170 176 178 168 171 147 131 125 149 159 39 48 92 111 89 91 146 358 299 319 319 341 255 317 295 247 311 327 292
233 235 236 227 211 199 202 201 193 202 184 170 179 181 183 180 179 181 180 179 178 173 176 180 180 184 187 191 191 196 199 196 185 187 173 170 179 183 179 187 186 185 178 182 179 179 175 176 179 177 177 178 169 172 168 166 161 171 177 174 162 155 144 135 147 152 135 183 58 38 355 33 73 99 58 238 274 306 303 210 222 136 360 270 267
223 233 230 218 209 209 204 193 203 179 165 180 184 183 179 176 178 178 181 179 180 180 181 187 187 185 188 186 196 206 198 186 171 170 174 176 182 182 183 183 184 187 183 179 182 180 178 178 177 177 177 179 175 165 164 165 168 165 164 163 166 158 144 140 129 151 135 156 106 23 68 344 4 349 190 126 245 313 297 315 304 243 251 228 194
238 234 233 220 216 213 202 188 170 193 185 175 171 168 174 171 177 180 186 184 181 183 186 188 189 183 189 196 198 193 184 165 167 178 179 176 188 185 184 182 185 184 185 184 179 181 179 175 178 182 181 177 174 171 164 166 169 170 173 168 163 150 143 136 141 145 140 140 141 150 133 74 39 334 235 185 230 195 259 293 308 323 329 301 277
238 234 233 228 215 196 170 187 186 164 166 168 171 175 173 177 180 185 188 181 182 186 185 191 191 191 197 197 198 192 184 172 171 185 180 180 191 189 187 188 183 187 180 187 185 179 179 177 180 185 180 179 172 170 174 172 172 171 171 164 160 154 152 143 134 132 133 139 153 160 178 173 192 187 196 189 181 234 269 251 267 276 280 301 308
261 247 236 197 163 176 171 190 177 180 165 176 176 174 178 180 180 186 188 189 186 186 189 193 193 199 203 200 200 198 183 185 187 188 187 188 189 186 184 177 188 184 184 183 188 181 176 180 180 178 184 181 182 175 169 168 166 160 164 162 164 156 149 142 137 134 139 145 166 171 176 176 186 201 216 201 200 239 228 265 275 278 263 235 287
233 229 211 195 191 183 191 194 176 182 190 183 181 180 179 182 185 186 197 191 190 186 192 194 195 201 201 201 205 196 196 194 194 192 188 188 186 183 180 189 180 184 192 187 191 181 179 177 180 184 186 190 176 171 171 165 162 162 163 163 161 165 164 151 143 150 150 157 177 181 175 178 199 201 198 200 225 226 230 274 264 244 265 282 276
241 218 205 206 200 197 195 191 192 190 188 184 181 182 185 186 190 195 201 191 190 190 195 195 202 203 200 201 200 196 203 199 201 197 189 189 185 188 187 187 186 193 185 193 186 180 183 186 181 182 179 173 174 174 169 167 163 161 162 161 165 168 154 145 141 142 147 160 157 167 179 188 204 202 209 216 238 247 260 260 290 273 256 262 250
257 229 217 211 208 196 194 196 194 192 187 184 185 188 183 193 194 202 199 196 194 197 193 199 204 202 202 203 199 199 203 201 206 202 190 188 189 188 191 189 192 192 191 188 174 181 182 175 178 176 176 176 172 171 167 162 160 153 159 161 160 165 159 147 144 145 151 159 166 170 180 186 210 207 210 240 222 233 247 267 288 315 306 208 249
317 247 256 249 223 211 205 200 201 191 187 188 189 186 191 200 200 202 202 198 199 197 200 202 204 199 201 201 204 201 202 202 205 203 203 193 188 188 189 190 193 185 186 176 181 178 177 176 174 178 173 172 174 171 167 166 165 161 162 164 167 175 160 154 153 149 157 164 169 169 164 201 194 211 219 230 232 234 241 242 254 260 296 308 328
304 266 255 271 280 234 213 207 198 193 189 194 196 193 197 196 196 203 205 197 198 203 206 204 202 198 204 205 200 200 202 202 204 203 201 195 190 190 187 190 182 184 182 180 174 178 176 174 175 174 175 175 173 174 171 169 169 168 169 168 172 174 162 159 151 151 159 158 160 166 177 185 200 212 227 225 235 241 233 236 231 231 241 285 321
261 254 253 246 239 247 238 226 214 205 201 200 203 201 202 199 201 203 199 200 205 203 204 202 201 203 204 204 204 204 204 208 205 201 195 193 200 191 184 180 191 183 176 176 174 175 176 176 175 175 175 174 177 174 173 173 170 173 172 175 172 163 156 149 153 149 156 156 156 155 166 182 198 208 217 226 228 229 231 233 224 229 201 221 268
280 261 251 242 232 229 219 213 215 221 222 215 206 197 204 209 210 205 205 207 206 202 201 204 204 207 206 205 204 204 205 206 204 197 188 198 200 199 193 191 173 176 175 175 176 175 175 178 176 176 175 177 175 176 173 173 173 169 173 171 171 165 160 157 158 152 159 152 155 166 165 186 191 208 215 218 223 211 230 213 230 216 221 217 250
280 266 249 240 233 229 227 216 209 213 211 208 199 196 209 212 206 214 219 214 204 203 201 205 205 207 208 204 205 204 203 200 199 194 196 201 202 199 200 187 188 173 178 174 175 179 178 176 178 175 176 175 176 177 177 175 173 175 170 169 175 167 163 160 157 152 153 155 158 168 175 177 182 179 200 212 211 228 215 222 216 210 214 200 200
280 274 258 242 239 238 235 232 224 234 225 206 203 206 211 195 209 210 210 209 210 212 205 212 204 208 205 204 204 201 200 196 193 196 200 203 199 197 198 200 171 188 177 176 180 181 178 177 174 176 177 178 178 178 179 174 174 172 174 171 170 168 161 158 152 154 155 157 163 168 170 174 168 189 204 204 217 214 216 221 220 210 239 228 236
264 266 266 257 254 244 240 230 208 200 219 215 215 210 203 204 211 207 210 214 215 216 212 213 206 207 205 209 205 201 198 193 195 195 201 202 200 197 192 178 193 191 184 184 181 178 178 175 175 177 178 178 179 177 175 174 174 172 172 170 171 167 163 160 158 162 161 165 163 169 178 169 170 188 197 207 212 217 214 226 229 222 236 253 227
269 269 265 248 250 265 252 218 209 212 220 225 219 211 213 216 212 208 207 218 212 215 213 213 209 208 210 209 202 197 194 196 196 198 201 202 200 192 183 190 191 188 188 188 186 179 176 174 175 176 176 177 178 177 178 176 177 174 172 172 173 171 169 166 167 168 163 158 164 173 181 165 170 190 208 212 207 207 214 223 233 215 237 243 248
269 269 273 265 258 254 254 234 220 218 219 219 218 222 226 223 217 213 215 221 214 217 210 207 209 212 210 202 202 198 193 197 199 202 202 198 191 189 183 189 191 185 186 187 183 183 176 176 176 175 177 176 175 176 176 180 178 175 174 173 172 174 172 170 165 160 160 165 169 174 180 174 180 197 211 206 206 205 221 230 225 229 219 245 247
275 277 275 280 282 263 248 249 241 237 237 232 223 223 218 221 216 216 223 223 216 213 206 211 209 211 205 203 203 196 197 198 202 202 203 193 189 184 181 186 182 187 190 177 177 179 182 180 180 178 175 175 176 173 175 178 179 179 176 171 172 170 170 166 162 162 164 164 170 177 176 170 179 197 210 207 207 212 222 211 223 215 224 235 236
262 284 303 269 252 247 246 238 230 223 217 217 220 222 222 224 223 218 222 221 215 206 209 209 209 209 206 204 202 197 202 203 204 202 198 192 187 182 183 185 181 183 181 186 179 178 181 185 181 177 174 173 173 176 178 177 176 174 172 172 168 167 166 163 161 163 161 166 173 175 176 175 185 200 211 212 211 216 214 212 208 216 223 230 239
254 251 258 280 277 259 252 246 227 223 217 218 219 222 221 224 235 228 224 220 211 200 206 208 209 208 209 208 202 202 203 205 203 201 195 189 186 184 181 185 182 178 177 182 188 181 181 178 177 172 175 174 173 174 175 176 174 173 172 170 168 165 163 158 161 161 162 166 172 176 181 189 197 206 210 213 216 215 213 214 211 220 226 235 243
250 263 267 259 258 262 261 259 258 249 240 232 226 224 226 227 233 228 218 216 208 200 206 208 207 209 211 209 204 205 205 205 201 198 193 191 186 183 185 181 174 179 182 183 182 185 179 173 173 172 173 169 170 174 176 175 175 173 171 170 169 164 160 157 158 161 164 169 178 188 195 200 205 208 209 213 209 211 208 214 222 220 227 235 244
313 286 279 267 270 276 278 278 271 276 281 277 271 257 246 241 238 235 215 214 205 200 208 209 209 212 214 210 207 207 203 196 192 191 191 189 188 186 181 178 180 181 179 181 178 177 173 174 170 171 169 170 174 178 177 174 171 174 172 169 168 165 161 160 158 164 170 176 186 194 201 206 206 211 217 218 215 213 208 218 225 220 227 235 241
277 274 281 295 303 299 293 292 294 291 283 270 257 252 247 244 243 232 215 218 185 203 206 208 211 215 214 208 205 199 195 191 190 192 191 188 185 181 179 180 181 180 175 172 174 178 179 176 171 170 170 173 179 176 179 178 176 170 169 166 161 163 160 159 161 164 173 181 189 193 202 212 216 218 222 226 229 231 229 225 218 211 220 223 232
324 326 327 321 308 302 300 297 289 282 270 259 255 255 259 257 251 238 214 210 190 209 208 207 210 213 210 203 197 195 189 193 195 191 188 183 183 179 179 178 177 175 174 173 173 175 180 181 176 172 173 176 177 175 179 181 180 176 166 163 163 164 163 162 165 164 173 182 188 195 200 212 216 222 227 232 238 240 244 248 252 256 255 251 246
360 357 357 353 347 336 322 307 296 286 275 268 267 265 261 253 247 235 223 198 198 210 209 213 216 209 203 199 196 192 190 195 188 191 186 185 177 175 178 178 175 175 176 169 176 181 177 175 174 174 175 175 174 178 182 182 180 177 171 166 162 164 165 166 169 173 176 179 184 193 203 202 212 217 216 227 236 241 246 250 254 258 261 262 262
355 353 350 348 347 340 335 329 320 312 303 294 286 284 279 267 254 244 199 187 205 208 210 215 213 205 204 197 192 190 194 190 192 188 181 175 177 178 179 176 182 179 164 175 181 171 178 173 173 173 175 174 172 180 183 182 181 178 173 167 167 165 168 169 172 176 178 179 186 196 202 206 201 217 221 219 209 226 246 255 261 263 266 266 268
345 346 340 334 338 338 333 327 320 313 310 304 300 291 285 284 284 198 179 206 202 210 210 214 208 204 199 192 192 192 193 193 187 181 175 177 178 184 182 178 166 163 174 174 173 177 172 175 175 175 173 172 171 185 184 183 182 179 175 169 171 167 164 171 175 179 181 186 194 196 195 207 204 205 209 206 212 216 218 235 244 247 246 256 263
335 335 335 332 331 330 329 329 328 322 315 316 314 306 295 290 282 248 209 198 207 207 210 210 203 201 191 192 192 193 193 187 181 177 176 181 182 178 174 176 174 176 176 179 177 177 177 172 172 170 169 174 179 186 186 185 183 180 177 166 166 169 170 174 179 182 186 192 197 197 204 204 205 211 208 220 217 225 227 235 237 238 244 245 256
330 327 325 326 328 326 323 320 317 318 316 319 319 318 312 293 289 256 231 203 203 208 215 207 204 198 197 197 192 192 187 179 176 175 178 182 182 181 178 173 170 173 175 167 171 171 170 172 172 170 170 177 180 189 187 186 185 184 178 165 170 172 169 169 175 184 190 192 195 206 196 209 218 224 236 241 243 241 239 242 252 254 257 261 263
322 323 318 317 317 320 320 319 320 320 320 323 325 321 312 304 300 288 253 216 194 218 221 210 210 203 202 195 190 186 182 178 176 177 184 183 181 181 176 167 169 174 173 177 177 177 175 173 173 175 175 178 181 192 188 185 184 184 181 155 166 164 167 160 168 179 183 197 200 186 194 202 224 225 240 248 253 258 264 264 262 268 268 265 260
322 323 322 325 326 325 326 330 326 325 325 328 326 319 313 307 303 308 257 238 209 227 221 212 216 209 203 196 190 184 182 179 179 186 186 185 179 173 173 171 175 174 179 181 172 172 178 178 176 179 181 177 180 190 187 185 183 185 173 158 164 159 149 156 165 172 160 183 203 207 209 215 230 241 249 257 264 267 267 266 274 270 266 265 277
331 330 331 332 331 329 328 331 334 333 332 334 331 324 319 308 306 302 262 243 240 240 230 229 237 204 192 187 187 187 187 184 188 190 181 176 176 177 170 166 175 173 175 167 171 173 175 180 185 182 181 180 177 187 186 185 184 185 172 154 158 155 157 163 167 166 175 188 202 213 221 224 230 243 253 260 266 269 274 271 266 274 280 285 286
332 334 328 324 323 332 337 339 337 331 329 333 333 329 318 309 309 302 277 258 249 236 215 203 187 172 170 174 181 185 184 182 183 171 172 177 168 158 164 170 170 168 165 168 171 173 177 182 177 179 184 174 163 183 186 184 181 182 168 157 152 160 167 168 168 176 181 190 193 204 217 225 234 247 261 267 270 271 268 271 281 283 282 281 296
329 330 330 326 328 331 329 328 328 327 329 329 333 331 320 317 318 311 281 274 289 274 235 210 166 164 170 174 171 180 178 176 169 170 166 166 170 170 165 169 166 164 160 163 172 172 173 177 177 178 176 168 180 177 186 185 183 183 171 163 161 167 165 166 167 174 186 187 191 190 190 220 238 249 256 263 270 272 277 285 287 283 284 287 289
318 318 324 324 321 324 324 326 324 325 325 327 331 326 315 314 318 297 283 309 296 262 214 177 184 184 180 175 175 171 167 166 163 160 166 173 171 166 169 168 166 163 163 165 167 170 173 172 170 177 173 173 185 187 180 186 184 184 176 169 166 171 167 161 171 180 186 185 180 176 191 215 229 243 253 261 268 278 288 290 289 288 290 294 295
324 322 319 319 318 320 322 321 324 325 324 323 327 320 313 309 304 291 299 296 266 236 194 188 185 182 181 179 176 170 167 163 169 172 169 169 164 163 166 168 166 165 168 169 171 171 170 173 165 163 159 164 180 188 186 184 185 184 182 174 172 170 177 171 178 180 183 176 165 175 190 211 229 240 250 262 277 286 293 290 291 293 296 300 307
313 313 316 320 315 312 315 316 318 319 319 319 320 312 308 304 294 291 297 283 262 234 201 200 201 191 178 175 168 170 167 169 170 167 171 166 168 168 167 174 172 170 171 172 175 167 162 172 165 161 166 164 176 174 188 187 187 185 186 177 177 178 180 176 177 171 163 151 140 150 184 209 221 237 258 278 282 287 286 290 296 297 302 311 332
311 316 320 318 318 317 316 313 313 316 317 312 307 300 297 293 290 288 275 259 242 222 210 209 204 191 181 173 164 169 169 171 175 173 174 173 169 168 170 178 175 179 180 172 161 152 163 144 146 157 159 160 166 165 181 190 190 188 187 184 178 180 186 179 167 161 144 143 155 184 200 214 226 257 280 291 297 295 293 294 298 303 312 339 313
308 311 314 315 313 311 311 310 311 314 312 309 303 296 289 287 290 288 263 243 224 220 227 222 201 187 183 170 173 172 170 174 179 188 191 185 177 177 177 178 183 177 177 175 156 163 161 176 173 154 155 158 165 153 170 180 191 189 188 188 184 183 186 178 149 150 150 165 187 200 198 174 106 314 317 286 273 273 288 299 306 311 318 298 280
312 309 314 315 314 310 310 309 306 308 308 302 298 293 286 287 290 286 264 233 228 228 229 220 210 202 184 177 180 182 179 178 182 187 194 193 190 188 184 185 176 159 177 179 175 166 168 179 170 155 147 158 156 169 176 176 176 176 176 183 184 187 182 172 152 165 166 158 159 144 118 148 143 245 265 274 285 302 313 312 300 285 272 270 269
307 309 312 311 310 308 307 308 305 305 307 303 298 293 291 292 292 289 264 239 237 233 230 226 213 199 195 191 193 185 180 185 189 188 188 191 199 199 197 196 184 182 183 188 183 171 174 172 168 167 167 168 176 178 180 176 174 171 171 175 171 166 166 149 143 140 128 130 118 94 81 63 67 38 10 341 277 260 264 272 277 271 269 265 270
305 305 309 305 305 304 303 304 303 302 303 302 297 295 294 292 288 285 261 241 246 241 237 235 217 202 205 198 196 185 190 189 192 195 203 196 188 195 209 228 232 210 199 189 182 187 187 185 179 177 173 164 133 181 186 174 174 174 168 164 160 162 152 150 156 141 113 95 98 98 102 88 81 155 250 255 256 257 257 249 263 268 261 258 268
295 300 301 298 297 302 306 303 297 298 299 298 298 300 301 301 298 285 256 244 249 244 234 233 213 211 209 196 201 195 192 189 190 193 195 201 208 211 215 217 219 218 226 228 199 191 187 178 184 187 178 174 181 180 170 177 175 173 173 168 163 162 165 157 175 164 140 130 137 148 151 148 167 191 230 253 263 272 290 292 275 275 277 279 280
296 299 297 299 306 310 306 300 295 296 294 296 297 297 297 298 300 292 263 250 246 242 238 233 213 213 207 201 201 195 192 191 190 189 190 195 200 214 218 220 220 212 212 215 206 206 195 189 181 170 174 170 162 164 171 171 172 173 172 169 168 173 170 174 174 144 127 146 150 152 172 176 199 194 216 232 245 263 274 278 282 284 277 283 289